Temperature
19 19 18 18 18 17 17 17 17 17 17 17 17 17 17 17 16 16 16 16 16 16 16 16 16 16 15 15 15 15 15 15 15 15 14 14 14 13 14 13 13 13 13
19 19 18 18 17 17 17 17 17 17 17 17 16 16 16 16 16 16 16 16 16 15 15 15 15 15 15 15 15 15 15 15 15 14 14 14 13 13 13 13 13 13 13
19 18 18 18 17 17 17 17 17 17 17 16 16 16 16 16 16 16 16 16 15 15 15 15 15 15 15 15 15 15 14 14 14 14 14 13 13 13 13 13 13 13 12
19 18 18 18 17 17 17 17 17 17 17 16 16 16 16 16 16 16 16 15 15 15 15 15 15 15 15 14 14 14 14 14 14 14 14 13 13 13 13 12 12 12 12
18 18 18 18 17 17 17 16 16 16 16 16 16 16 15 15 15 15 15 15 15 15 15 15 15 14 14 14 14 14 14 13 13 13 13 13 13 12 12 12 12 12 12
18 18 18 18 17 17 16 16 16 16 16 16 16 15 15 15 15 15 15 15 15 15 14 14 14 14 14 14 14 14 14 13 13 13 13 13 12 12 12 12 12 12 12
18 18 18 17 17 17 16 16 16 16 16 15 15 15 15 15 15 15 15 14 14 14 14 14 14 13 13 13 13 13 13 13 13 13 12 12 12 12 12 12 11 11 11
18 18 17 17 17 17 16 16 16 16 15 15 15 15 15 15 15 15 15 14 14 14 14 13 13 13 13 13 12 12 12 12 12 12 12 12 12 12 11 11 11 11 11
18 17 17 17 17 16 16 16 16 15 15 15 14 14 14 14 15 14 14 14 14 13 13 13 13 13 13 13 12 12 12 12 12 12 12 12 12 12 11 11 11 11 11
18 17 17 17 17 16 16 16 15 15 15 14 14 14 14 14 14 14 14 13 13 13 13 13 13 13 13 12 12 11 11 11 11 11 11 11 11 11 11 11 11 11 11
17 17 17 17 17 16 16 15 15 15 14 14 14 14 14 14 14 14 14 13 13 13 13 13 12 12 12 12 12 11 11 11 11 11 11 11 11 11 11 10 10 10 11
17 17 16 16 16 16 16 15 15 14 14 14 14 14 13 13 13 13 13 13 13 12 12 12 12 12 12 12 12 11 11 11 11 11 11 11 11 11 10 10 10 10 10
16 16 16 16 16 16 15 15 15 14 14 14 14 14 13 13 13 13 13 13 13 12 12 12 12 12 11 11 11 11 11 11 11 11 11 11 11 10 10 10 10 10 10
16 16 16 16 16 15 15 15 14 14 14 14 14 14 14 13 13 13 13 13 12 12 12 12 12 11 11 11 11 11 11 11 11 11 11 11 10 10 10 10 10 10 10
16 15 15 15 15 15 15 14 14 14 14 14 14 13 13 13 13 13 13 12 12 12 12 11 12 11 11 11 11 11 11 10 10 11 11 10 10 10 10 10 10 10 10
15 15 15 15 15 15 14 14 14 14 14 14 13 13 13 13 13 13 13 12 12 12 11 11 12 12 12 12 11 11 11 10 10 10 10 10 10 10 10 10 10 10 10
15 15 14 14 14 14 14 14 14 14 14 13 13 13 13 13 13 12 12 12 12 11 11 11 11 12 11 11 11 11 11 10 10 10 10 10 10 10 10 10 10 10 10
14 14 14 14 14 13 13 13 13 13 13 13 13 13 13 13 12 12 12 12 11 11 11 11 11 11 11 11 11 11 11 10 10 10 10 10 10 10 10 10 10 9 9
14 14 14 14 13 13 13 13 13 13 13 12 12 12 12 12 12 12 12 11 11 11 11 11 11 11 11 11 11 11 10 10 10 10 10 10 10 9 9 10 10 9 9
13 13 13 13 13 13 13 13 13 13 12 12 12 12 12 12 12 12 11 11 11 11 11 11 11 11 11 11 10 10 10 10 10 10 10 9 9 9 9 9 9 9 9
14 14 13 13 13 13 13 13 13 12 12 12 12 12 12 12 12 12 11 11 11 11 11 11 11 10 10 10 10 10 10 10 10 9 9 9 9 9 9 9 9 9 9
14 13 13 13 13 13 12 12 12 12 12 12 12 12 12 11 11 11 11 11 11 11 10 10 10 10 10 10 10 10 9 9 9 9 9 9 9 9 9 9 9 9 9
13 13 13 12 12 12 12 12 12 12 12 12 11 11 11 11 11 11 11 11 11 10 10 10 10 10 10 10 9 9 9 9 9 9 9 9 9 9 9 9 8 8 8
13 13 13 12 12 12 12 12 12 12 11 11 11 11 11 11 11 10 10 10 10 10 10 10 10 9 9 9 9 9 9 9 8 8 8 8 8 8 8 8 8 8 8
12 12 12 12 12 12 12 12 11 11 11 11 11 11 11 10 10 10 10 10 10 10 9 9 9 9 9 9 8 8 9 8 8 8 8 8 8 7 8 8 8 8 7
12 12 12 12 11 11 11 11 11 11 11 11 11 10 10 10 10 10 9 9 9 9 9 9 9 9 8 8 8 8 8 8 8 8 8 7 7 7 7 7 7 7 7
Wind_Speed
6 5 4 4 3 3 3 2 2 1 1 1 1 1 1 1 1 1 1 1 2 1 2 1 2 2 2 2 2 2 3 3 3 2 1 1 1 1 2 2 2 2 5
6 5 4 4 3 3 3 2 2 2 1 1 1 1 1 1 1 1 1 1 1 1 1 2 2 1 1 2 2 2 1 1 2 2 1 0 0 1 2 1 2 3 4
6 5 5 4 4 3 3 3 2 2 1 1 1 1 1 1 1 1 1 1 1 1 1 1 1 1 1 1 1 1 1 1 1 1 1 0 0 1 1 2 2 1 3
6 6 5 4 4 4 4 3 3 2 2 1 1 1 1 1 1 1 1 1 1 0 1 1 2 1 1 1 0 1 0 1 1 1 1 1 1 1 1 1 1 1 1
7 6 6 4 4 4 3 3 3 2 2 2 1 1 1 1 0 1 1 1 1 1 1 1 2 3 4 3 2 1 1 1 1 1 1 1 1 1 1 1 1 1 2
6 6 5 5 4 4 4 3 3 2 2 2 2 1 1 0 4 3 2 1 1 2 1 1 2 2 3 3 3 3 2 1 1 1 1 1 1 1 1 1 1 1 1
6 6 6 5 5 5 5 4 4 3 3 2 2 2 1 1 2 1 3 1 1 1 1 1 0 2 1 2 3 4 2 2 1 2 1 2 2 1 1 1 1 1 1
7 6 6 6 6 5 5 5 5 4 3 3 2 2 2 2 2 2 3 2 2 2 2 1 1 1 1 0 1 2 1 1 0 1 0 1 1 1 2 2 2 2 2
7 7 7 7 6 6 5 5 4 4 3 3 3 3 3 3 3 3 5 3 3 3 2 2 2 2 2 2 1 2 2 2 3 3 2 2 2 1 2 2 2 2 1
7 7 7 7 6 6 5 5 4 4 4 4 3 3 3 3 4 4 5 3 3 3 3 3 3 2 2 1 2 2 2 1 1 3 3 4 3 3 2 2 2 2 1
6 6 6 6 6 6 6 6 5 5 5 4 4 4 4 4 6 5 5 4 3 3 3 3 3 5 3 2 3 2 1 2 3 3 3 3 3 3 3 2 2 2 2
5 6 6 6 6 6 6 6 6 6 6 6 5 5 4 4 4 6 6 5 4 4 3 3 3 6 5 3 3 1 2 5 3 3 3 3 2 2 1 1 1 1 2
5 5 6 5 5 6 7 7 7 6 6 6 5 5 5 5 5 8 9 7 6 5 3 2 3 6 7 6 6 5 5 4 3 3 3 2 2 1 1 2 2 2 2
5 5 5 5 6 6 5 6 6 6 6 6 5 5 5 5 5 5 6 7 8 6 5 5 8 8 7 5 5 6 5 4 3 3 3 2 2 3 3 2 2 2 3
5 5 5 5 5 5 5 4 5 4 4 5 5 5 5 6 5 4 5 5 5 5 4 5 5 5 6 5 5 5 4 4 4 4 4 3 3 3 3 3 3 3 3
5 6 5 5 5 5 5 4 1 2 2 3 4 5 4 3 5 6 6 5 4 5 6 7 6 6 6 6 5 5 5 5 5 4 4 4 4 3 3 3 3 3 3
6 6 5 5 5 5 5 5 4 3 3 4 5 5 5 4 6 8 8 7 7 8 8 8 7 7 6 6 6 6 6 5 5 5 4 4 4 4 4 4 4 4 4
6 5 5 5 5 5 5 5 5 5 4 4 4 5 5 5 6 7 8 7 6 8 9 8 7 7 6 6 6 6 5 5 5 5 5 5 5 5 5 5 5 5 5
5 5 4 5 5 5 5 5 5 5 4 4 3 3 5 5 6 7 8 7 8 8 8 8 7 7 6 5 5 5 5 5 5 5 5 5 5 5 5 5 5 5 6
4 4 4 4 5 4 5 5 5 4 4 4 4 3 3 4 4 5 6 7 7 7 7 6 6 6 5 5 6 6 6 6 6 6 5 5 5 5 6 6 5 5 5
4 4 6 5 4 4 5 5 5 4 4 4 4 3 3 5 5 5 5 6 6 6 6 5 5 5 5 5 5 6 6 6 6 6 6 5 5 5 5 5 5 5 5
3 4 4 4 4 4 5 5 5 5 5 5 5 4 6 6 5 5 5 5 5 5 5 5 5 5 4 4 5 5 6 5 5 5 5 5 5 6 6 6 5 5 5
3 4 4 4 4 4 5 5 5 5 5 5 5 4 5 5 5 5 5 5 5 5 5 5 5 5 4 5 5 5 5 5 4 5 5 5 5 5 6 6 7 7 6
4 4 4 4 4 4 5 5 5 6 6 6 6 5 5 5 5 5 5 4 4 5 5 5 5 5 6 5 5 5 5 4 5 5 6 5 6 6 6 6 6 6 6
3 3 3 3 4 4 5 5 5 6 5 5 5 5 5 5 5 5 4 4 5 5 5 5 5 5 6 7 6 4 2 2 3 5 5 5 6 6 6 6 6 6 6
2 2 3 3 3 4 4 5 5 5 5 5 5 5 5 5 5 5 5 5 5 5 5 5 5 6 7 7 6 3 3 4 4 6 7 6 6 6 7 6 7 6 7
Wind_Direction
175 176 182 184 189 195 197 198 203 206 202 212 214 205 216 234 226 234 259 248 249 262 278 275 276 287 274 263 254 252 256 258 253 277 343 59 53 34 62 78 105 129 113
173 172 178 178 177 184 184 188 184 177 191 194 203 207 230 242 240 233 258 278 289 302 304 307 304 299 288 282 265 250 247 240 232 234 262 268 67 75 71 81 85 94 102
167 171 172 180 182 185 187 180 168 169 176 200 186 186 207 228 224 223 243 275 320 335 327 318 327 329 334 329 304 281 238 193 199 201 225 158 336 91 102 102 96 98 117
172 176 176 181 181 181 184 178 172 167 162 166 174 184 189 206 201 211 205 179 155 87 42 23 20 15 4 337 288 285 270 214 174 191 192 181 146 112 139 141 138 133 116
179 180 178 173 174 181 180 173 168 167 160 151 161 172 192 198 246 259 207 179 171 146 112 75 65 58 40 17 357 4 225 218 195 184 194 189 157 152 189 181 137 134 126
181 179 174 174 174 178 176 172 169 170 176 162 170 173 187 105 54 18 305 187 187 168 140 121 133 112 97 93 63 45 28 236 231 236 221 212 206 193 203 192 165 162 141
179 178 176 176 178 182 182 178 182 186 182 181 190 188 182 106 85 30 318 248 192 169 159 175 151 95 146 111 136 157 114 63 342 274 245 230 218 210 230 217 203 230 187
181 182 182 183 184 183 183 186 191 191 191 200 201 190 187 153 142 199 262 214 173 165 171 170 153 124 77 79 144 129 122 101 151 243 247 244 249 233 233 230 216 205 186
186 186 187 189 186 186 190 195 195 191 194 204 200 198 195 171 166 207 246 197 175 179 181 169 165 147 78 325 177 156 160 160 134 105 81 96 69 37 294 219 199 211 207
193 190 188 188 188 191 193 196 195 200 201 205 198 206 206 194 165 197 243 213 189 190 176 168 130 125 124 286 202 181 182 183 172 158 160 171 168 165 213 244 245 242 229
194 190 189 185 188 197 197 201 197 200 204 207 203 209 211 205 174 184 230 235 213 211 200 189 153 139 158 226 251 212 206 247 217 203 189 181 176 177 194 212 265 276 265
197 194 197 195 196 194 197 204 207 204 203 204 206 212 206 200 193 183 198 231 264 228 228 211 160 159 177 210 229 181 235 251 225 215 210 206 205 202 189 195 239 286 308
204 205 203 197 199 200 202 207 204 204 212 212 212 215 211 203 188 181 193 209 229 234 225 133 164 186 198 204 199 207 223 232 228 220 216 217 218 210 200 199 196 215 224
205 210 204 202 203 204 212 215 215 207 215 219 221 225 218 212 212 202 203 203 202 212 212 182 190 208 222 221 199 207 220 229 240 234 226 218 215 206 214 219 226 221 224
208 216 213 213 206 208 218 230 231 230 236 237 235 236 235 227 213 199 218 216 218 215 211 214 215 211 214 217 215 214 221 219 222 227 224 221 222 216 218 223 235 242 243
213 216 217 214 204 210 209 217 257 257 201 233 263 271 253 231 176 187 207 217 204 193 216 223 225 226 227 224 221 216 214 219 223 224 225 229 231 227 225 224 225 237 242
223 219 221 219 213 216 216 216 220 226 210 227 242 254 259 228 194 196 202 203 200 195 217 228 229 230 232 230 226 224 218 213 217 222 224 229 235 235 233 231 230 235 240
229 217 218 217 220 221 221 222 222 224 225 226 219 215 222 221 213 204 194 192 205 207 226 231 232 232 231 230 229 225 220 215 212 218 222 228 232 234 232 230 230 237 242
227 222 220 224 222 220 222 229 230 226 230 232 227 200 198 204 205 204 195 217 222 221 226 230 232 232 229 225 225 226 224 222 222 226 225 227 230 234 236 233 228 219 240
221 207 218 230 225 219 224 232 234 231 232 231 232 230 192 197 211 203 210 227 232 231 229 230 230 230 223 220 217 219 219 216 215 222 227 229 231 233 233 233 235 234 233
217 203 201 223 230 228 232 237 236 235 239 241 242 230 220 229 231 224 219 223 231 234 231 227 225 223 221 217 218 218 221 221 219 224 227 227 229 232 236 236 234 238 240
222 222 220 220 225 230 233 235 236 236 237 241 243 220 200 235 242 238 236 234 234 237 235 228 223 219 219 218 217 219 224 226 227 230 232 230 226 228 231 233 234 237 239
227 221 217 218 223 218 230 235 236 239 242 242 245 237 222 237 245 243 242 243 239 237 234 229 228 224 219 218 220 222 229 230 226 225 232 235 234 233 237 236 233 236 238
231 231 230 228 228 232 235 237 240 243 244 246 248 246 238 235 244 249 253 253 247 240 233 228 228 224 221 224 227 226 227 233 241 234 229 235 237 238 237 235 238 242 240
235 235 236 237 239 241 244 246 248 252 254 254 253 250 246 240 240 239 241 242 244 242 238 234 230 225 222 221 225 224 180 182 250 256 239 238 241 241 242 240 240 244 244
236 243 249 250 250 250 249 249 250 251 253 256 254 252 250 244 240 236 232 233 236 234 234 233 231 227 223 219 215 198 172 181 210 241 244 239 240 239 239 241 243 240 240
Height
1527 1528 1529 1530 1530 1530 1531 1531 1531 1530 1530 1530 1530 1530 1531 1530 1530 1530 1530 1529 1529 1529 1528 1528 1527 1527 1527 1527 1526 1526 1526 1526 1526 1527 1527 1526 1525 1525 1525 1524 1524 1524 1523
1525 1526 1527 1528 1528 1529 1529 1529 1529 1529 1529 1529 1529 1529 1529 1529 1529 1528 1528 1528 1528 1527 1527 1526 1526 1525 1525 1525 1524 1524 1524 1524 1524 1524 1524 1524 1523 1523 1523 1522 1522 1522 1522
1524 1524 1525 1525 1526 1526 1527 1527 1527 1527 1527 1527 1527 1528 1528 1527 1527 1527 1527 1526 1526 1526 1525 1525 1524 1524 1523 1523 1522 1522 1522 1522 1522 1522 1522 1522 1522 1522 1521 1521 1521 1521 1521
1521 1522 1523 1523 1524 1524 1525 1525 1525 1525 1525 1525 1526 1526 1526 1526 1526 1525 1525 1524 1524 1524 1523 1523 1522 1522 1522 1521 1521 1521 1521 1520 1520 1521 1521 1521 1521 1521 1521 1521 1520 1520 1520
1519 1520 1520 1521 1522 1522 1523 1523 1524 1524 1524 1524 1524 1524 1524 1524 1524 1524 1524 1523 1522 1522 1522 1521 1521 1521 1520 1520 1520 1520 1520 1519 1520 1519 1520 1520 1520 1519 1519 1519 1519 1519 1519
1516 1518 1518 1519 1520 1521 1521 1522 1522 1522 1522 1522 1522 1523 1523 1523 1522 1522 1522 1522 1521 1520 1520 1520 1520 1519 1519 1518 1518 1518 1518 1518 1518 1518 1519 1518 1518 1518 1518 1518 1518 1518 1518
1514 1515 1516 1517 1518 1519 1519 1520 1520 1520 1520 1520 1520 1520 1520 1520 1520 1520 1520 1520 1520 1519 1519 1519 1519 1518 1518 1517 1517 1516 1517 1517 1517 1517 1517 1517 1517 1516 1516 1517 1517 1517 1517
1511 1512 1514 1515 1516 1516 1517 1517 1518 1518 1518 1519 1518 1519 1518 1518 1518 1518 1518 1518 1518 1517 1517 1517 1517 1516 1516 1516 1516 1516 1515 1515 1515 1515 1516 1515 1515 1515 1515 1515 1515 1515 1516
1508 1510 1511 1512 1513 1513 1514 1515 1515 1516 1516 1517 1517 1516 1516 1515 1515 1516 1516 1517 1516 1516 1516 1515 1515 1515 1515 1514 1514 1514 1514 1514 1514 1514 1514 1514 1514 1513 1513 1514 1514 1515 1515
1505 1507 1508 1509 1509 1510 1511 1512 1513 1513 1514 1514 1514 1514 1514 1513 1513 1513 1514 1515 1515 1514 1514 1514 1513 1513 1513 1513 1513 1513 1513 1513 1513 1513 1513 1512 1512 1512 1512 1512 1513 1513 1513
1503 1504 1505 1505 1506 1507 1508 1509 1510 1510 1511 1511 1511 1511 1511 1510 1510 1511 1511 1512 1513 1513 1513 1513 1512 1511 1511 1511 1511 1511 1511 1511 1512 1512 1512 1512 1512 1511 1511 1511 1511 1512 1512
1499 1500 1501 1502 1503 1504 1505 1506 1506 1507 1507 1508 1508 1508 1508 1508 1508 1507 1508 1509 1509 1510 1510 1511 1510 1509 1509 1509 1508 1508 1508 1509 1510 1511 1511 1511 1510 1510 1510 1509 1509 1509 1509
1496 1497 1498 1498 1499 1500 1501 1501 1502 1503 1504 1505 1505 1505 1505 1505 1504 1504 1505 1505 1506 1506 1507 1507 1507 1506 1506 1506 1506 1506 1506 1507 1508 1508 1508 1508 1508 1508 1507 1507 1507 1507 1507
1494 1495 1495 1496 1496 1497 1498 1499 1499 1499 1500 1501 1502 1502 1501 1501 1501 1501 1501 1502 1502 1503 1503 1503 1503 1503 1503 1503 1503 1503 1504 1504 1505 1506 1506 1506 1506 1505 1506 1506 1506 1506 1506
1491 1491 1492 1493 1493 1494 1494 1495 1496 1496 1497 1497 1497 1498 1498 1497 1497 1497 1498 1498 1499 1500 1500 1500 1500 1500 1500 1500 1500 1501 1501 1502 1502 1503 1504 1504 1503 1503 1503 1503 1503 1504 1504
1487 1488 1489 1490 1490 1490 1490 1491 1491 1492 1492 1492 1493 1493 1493 1493 1492 1493 1493 1494 1494 1495 1496 1496 1496 1496 1497 1497 1497 1497 1498 1498 1499 1500 1501 1501 1501 1501 1501 1501 1501 1501 1501
1484 1485 1486 1486 1486 1487 1487 1488 1488 1488 1488 1488 1488 1488 1488 1488 1488 1488 1488 1489 1490 1490 1491 1492 1492 1492 1492 1493 1493 1494 1494 1495 1495 1496 1497 1497 1498 1498 1498 1498 1498 1498 1498
1481 1481 1481 1482 1483 1484 1484 1484 1484 1484 1484 1483 1484 1484 1483 1483 1483 1484 1484 1484 1485 1485 1486 1487 1487 1487 1488 1488 1489 1490 1490 1491 1492 1492 1493 1494 1494 1495 1495 1494 1494 1494 1495
1477 1478 1478 1479 1480 1480 1480 1481 1481 1480 1480 1480 1480 1479 1479 1479 1479 1479 1479 1480 1481 1481 1481 1482 1482 1483 1483 1484 1484 1485 1486 1487 1488 1488 1489 1489 1490 1491 1491 1491 1491 1491 1491
1474 1474 1475 1475 1476 1476 1476 1477 1477 1477 1477 1477 1476 1476 1475 1475 1475 1475 1475 1475 1476 1477 1477 1477 1477 1478 1478 1479 1480 1481 1482 1482 1483 1484 1485 1486 1486 1486 1487 1487 1487 1487 1487
1470 1471 1471 1472 1472 1473 1473 1473 1474 1474 1474 1473 1473 1473 1473 1473 1472 1472 1471 1471 1471 1472 1473 1473 1473 1473 1474 1474 1475 1476 1477 1478 1479 1480 1481 1481 1482 1482 1483 1483 1483 1483 1484
1467 1468 1468 1469 1469 1469 1469 1470 1470 1470 1470 1470 1469 1469 1468 1469 1469 1469 1468 1468 1468 1468 1469 1469 1469 1470 1470 1471 1471 1472 1473 1474 1475 1476 1476 1477 1477 1478 1478 1479 1479 1479 1479
1464 1465 1465 1465 1465 1465 1466 1466 1466 1466 1466 1466 1466 1466 1465 1465 1465 1465 1465 1465 1465 1465 1465 1465 1466 1466 1466 1467 1468 1468 1469 1470 1470 1471 1472 1472 1473 1473 1474 1474 1475 1475 1475
1461 1462 1462 1462 1462 1463 1463 1463 1463 1463 1463 1463 1463 1463 1462 1462 1462 1462 1462 1462 1462 1461 1461 1461 1462 1462 1462 1462 1463 1464 1464 1465 1466 1466 1466 1467 1468 1468 1469 1470 1470 1471 1471
1459 1459 1459 1459 1460 1460 1460 1460 1460 1460 1459 1459 1459 1459 1459 1459 1458 1458 1458 1458 1458 1458 1458 1458 1458 1458 1458 1459 1459 1460 1460 1460 1460 1461 1461 1462 1463 1463 1464 1465 1465 1466 1466
1456 1456 1457 1457 1457 1456 1456 1456 1456 1456 1456 1456 1455 1455 1455 1455 1455 1454 1454 1454 1454 1454 1454 1454 1455 1455 1455 1455 1455 1455 1455 1455 1455 1456 1457 1458 1459 1459 1460 1460 1460 1461 1461